User: anonymous   Login
Location: Drummondville
(45.8830°N, 72.4830°W)
Time: 11:38:41
(UTC-04:00)
Language:

N. Korean satellite - Orbit

View from above orbital plane
View from above orbital plane
View from above satellite
View from above satellite

Ground track
Ground track

The orbit data is extracted from the following two-line orbital elements,

1 39026U 12072A   18201.64596202  .00001150  00000-0  45431-4 0  9996
2 39026  97.2100 210.8743 0038391 201.9118 158.0482 15.26844156310769
Epoch (UTC): 20 July 2018 15:30:11
Eccentricity: 0.0038391
inclination: 97.2100°
perigee height: 459 km
apogee height: 511 km
right ascension of ascending node: 210.8743°
argument of perigee: 201.9118°
revolutions per day: 15.26844156
mean anomaly at epoch: 158.0482°
orbit number at epoch: 31076

The dashed part of the orbit path shows where the satellite is in the earth's shadow,  

DLR